Time,TemperatureF,DewpointF,PressureIn,WindDirection,WindDirectionDegrees,WindSpeedMPH,WindSpeedGustMPH,Humidity,HourlyPrecipIn,Conditions,Clouds,dailyrainin,SoftwareType,DateUTC
2013-01-31 00:00:00,45.5,45.5,-100.00,ESE,120,0.0,2.0,-999,0.00,,,0.00,VWS V14.01,2013-01-31 08:00:00,
2013-01-31 00:02:00,45.6,45.6,-100.00,ESE,120,0.0,0.0,-999,0.00,,,0.00,VWS V14.01,2013-01-31 08:02:00,
2013-01-31 00:07:00,46.1,46.1,-100.00,ESE,120,0.0,0.0,-999,0.00,,,0.00,VWS V14.01,2013-01-31 08:07:00,
2013-01-31 00:12:00,45.3,45.3,-100.00,ESE,120,0.0,0.0,-999,0.00,,,0.00,VWS V14.01,2013-01-31 08:12:00,
2013-01-31 00:30:00,45.8,45.8,-100.00,ESE,112,0.0,3.0,-999,0.00,,,0.00,VWS V14.01,2013-01-31 08:30:00,
2013-01-31 01:00:00,45.2,45.2,-100.00,ESE,112,0.0,2.0,-999,0.00,,,0.00,VWS V14.01,2013-01-31 09:00:00,
2013-01-31 01:30:00,44.6,44.6,-100.00,ESE,112,1.0,3.0,-999,0.00,,,0.00,VWS V14.01,2013-01-31 09:30:00,
2013-01-31 02:00:00,44.4,44.4,-100.00,ESE,112,0.0,2.0,-999,0.00,,,0.00,VWS V14.01,2013-01-31 10:00:00,
2013-01-31 02:30:00,43.3,43.3,-100.00,ESE,112,0.0,2.0,-999,0.00,,,0.00,VWS V14.01,2013-01-31 10:30:00,
2013-01-31 03:00:00,43.0,43.0,-100.00,ESE,112,0.0,2.0,-999,0.00,,,0.00,VWS V14.01,2013-01-31 11:00:00,
2013-01-31 03:30:00,42.2,42.2,-100.00,ESE,112,0.0,2.0,-999,0.00,,,0.00,VWS V14.01,2013-01-31 11:30:00,
2013-01-31 04:00:00,43.1,43.1,-100.00,NNW,338,2.0,6.0,-999,0.00,,,0.00,VWS V14.01,2013-01-31 12:00:00,
2013-01-31 04:30:00,42.3,42.3,-100.00,NNW,338,0.0,2.0,-999,0.00,,,0.00,VWS V14.01,2013-01-31 12:30:00,
2013-01-31 05:00:00,42.1,42.1,-100.00,NNW,338,0.0,3.0,-999,0.00,,,0.00,VWS V14.01,2013-01-31 13:00:00,
2013-01-31 05:30:00,41.9,41.9,-100.00,NNW,338,0.0,2.0,-999,0.00,,,0.00,VWS V14.01,2013-01-31 13:30:00,
2013-01-31 06:00:00,41.2,41.2,-100.00,NNW,338,1.0,3.0,-999,0.00,,,0.00,VWS V14.01,2013-01-31 14:00:00,
2013-01-31 06:30:00,41.5,41.5,-100.00,NNW,338,0.0,2.0,-999,0.00,,,0.00,VWS V14.01,2013-01-31 14:30:00,
2013-01-31 07:00:00,40.2,40.2,-100.00,NNW,338,0.0,0.0,-999,0.00,,,0.00,VWS V14.01,2013-01-31 15:00:00,
2013-01-31 07:30:00,40.1,40.1,-100.00,NNW,338,0.0,2.0,-999,0.00,,,0.00,VWS V14.01,2013-01-31 15:30:00,
2013-01-31 08:00:00,41.2,41.2,-100.00,NNW,338,0.0,2.0,-999,0.00,,,0.00,VWS V14.01,2013-01-31 16:00:00,
2013-01-31 08:30:00,42.1,42.1,-100.00,NNW,338,1.0,3.0,-999,0.00,,,0.00,VWS V14.01,2013-01-31 16:30:00,
2013-01-31 09:00:00,44.0,44.0,-100.00,NNW,338,0.0,2.0,-999,0.00,,,0.00,VWS V14.01,2013-01-31 17:00:00,
2013-01-31 09:30:00,46.2,46.2,-100.00,NNW,338,1.0,4.0,-999,0.00,,,0.00,VWS V14.01,2013-01-31 17:30:00,
2013-01-31 10:00:00,48.2,48.2,-100.00,NNW,338,1.0,3.0,-999,0.00,,,0.00,VWS V14.01,2013-01-31 18:00:00,
2013-01-31 10:30:00,50.4,50.4,-100.00,NNW,338,1.0,3.0,-999,0.00,,,0.00,VWS V14.01,2013-01-31 18:30:00,
2013-01-31 11:00:00,52.8,52.8,-100.00,NNW,338,1.0,4.0,-999,0.00,,,0.00,VWS V14.01,2013-01-31 19:00:00,
2013-01-31 11:30:00,54.0,54.0,-100.00,NE,45,2.0,6.0,-999,0.00,,,0.00,VWS V14.01,2013-01-31 19:30:00,
2013-01-31 12:00:00,56.5,56.5,-100.00,NE,45,2.0,4.0,-999,0.00,,,0.00,VWS V14.01,2013-01-31 20:00:00,
2013-01-31 12:30:00,57.4,57.4,-100.00,NE,45,2.0,6.0,-999,0.00,,,0.00,VWS V14.01,2013-01-31 20:30:00,
2013-01-31 13:00:00,59.2,59.2,-100.00,NE,45,2.0,4.0,-999,0.00,,,0.00,VWS V14.01,2013-01-31 21:00:00,
2013-01-31 13:30:00,60.8,60.8,-100.00,NE,45,1.0,5.0,-999,0.00,,,0.00,VWS V14.01,2013-01-31 21:30:00,
2013-01-31 14:00:00,62.1,62.1,-100.00,NE,45,2.0,5.0,-999,0.00,,,0.00,VWS V14.01,2013-01-31 22:00:00,
2013-01-31 14:30:00,62.5,62.5,-100.00,NE,45,2.0,5.0,-999,0.00,,,0.00,VWS V14.01,2013-01-31 22:30:00,
2013-01-31 15:00:00,63.1,63.1,-100.00,NE,45,2.0,6.0,-999,0.00,,,0.00,VWS V14.01,2013-01-31 23:00:00,
2013-01-31 15:30:00,63.1,63.1,-100.00,NE,45,2.0,5.0,-999,0.00,,,0.00,VWS V14.01,2013-01-31 23:30:00,
2013-01-31 16:00:00,62.6,62.6,-100.00,East,90,2.0,5.0,-999,0.00,,,0.00,VWS V14.01,2013-02-01 00:00:00,
2013-01-31 16:30:00,61.5,61.5,-100.00,East,90,1.0,4.0,-999,0.00,,,0.00,VWS V14.01,2013-02-01 00:30:00,
2013-01-31 17:00:00,59.7,59.7,-100.00,East,90,1.0,3.0,-999,0.00,,,0.00,VWS V14.01,2013-02-01 01:00:00,
2013-01-31 17:30:00,56.5,56.5,-100.00,East,90,0.0,2.0,-999,0.00,,,0.00,VWS V14.01,2013-02-01 01:30:00,
2013-01-31 18:00:00,54.5,54.5,-100.00,East,90,0.0,3.0,-999,0.00,,,0.00,VWS V14.01,2013-02-01 02:00:00,
2013-01-31 18:30:00,53.5,53.5,-100.00,East,90,1.0,3.0,-999,0.00,,,0.00,VWS V14.01,2013-02-01 02:30:00,
2013-01-31 19:00:00,52.4,52.4,-100.00,East,90,1.0,3.0,-999,0.00,,,0.00,VWS V14.01,2013-02-01 03:00:00,
2013-01-31 19:30:00,51.1,51.1,-100.00,East,90,1.0,2.0,-999,0.00,,,0.00,VWS V14.01,2013-02-01 03:30:00,
2013-01-31 20:00:00,51.1,51.1,-100.00,East,90,1.0,2.0,-999,0.00,,,0.00,VWS V14.01,2013-02-01 04:00:00,
2013-01-31 20:30:00,50.1,50.1,-100.00,East,90,0.0,2.0,-999,0.00,,,0.00,VWS V14.01,2013-02-01 04:30:00,
2013-01-31 21:00:00,49.7,49.7,-100.00,East,90,0.0,2.0,-999,0.00,,,0.00,VWS V14.01,2013-02-01 05:00:00,
2013-01-31 21:30:00,49.0,49.0,-100.00,East,90,0.0,2.0,-999,0.00,,,0.00,VWS V14.01,2013-02-01 05:30:00,
2013-01-31 22:00:00,49.0,49.0,-100.00,East,90,1.0,5.0,-999,0.00,,,0.00,VWS V14.01,2013-02-01 06:00:00,
2013-01-31 22:30:00,49.9,49.9,-100.00,WNW,292,2.0,6.0,-999,0.00,,,0.00,VWS V14.01,2013-02-01 06:30:00,
2013-01-31 23:00:00,50.0,50.0,-100.00,WNW,292,2.0,5.0,-999,0.00,,,0.00,VWS V14.01,2013-02-01 07:00:00,
2013-01-31 23:30:00,47.1,47.1,-100.00,WNW,292,1.0,2.0,-999,0.00,,,0.00,VWS V14.01,2013-02-01 07:30:00,